Total_Precipitation_Accumulation
0.04 0.11 0.14 0.16 0.10 0.11 0.12 0.11 0.09 0.10 0.09 0.07 0.04 0.04 0.04 0.03 0.03 0.11 0.20 0.18 0.34 0.45 0.51 0.66 0.70 0.67 0.62 0.53 0.44 0.45 0.56 0.58 0.51 0.37 0.26 0.21 0.21 0.24 0.19 0.10 0.03 0.01 0.00
0.08 0.13 0.16 0.18 0.12 0.12 0.16 0.18 0.14 0.21 0.14 0.09 0.06 0.03 0.02 0.01 0.01 0.02 0.08 0.10 0.14 0.23 0.29 0.44 0.63 0.66 0.65 0.62 0.47 0.39 0.50 0.63 0.59 0.43 0.30 0.24 0.26 0.29 0.25 0.18 0.08 0.02 0.01
0.14 0.15 0.16 0.17 0.19 0.17 0.23 0.24 0.22 0.21 0.14 0.10 0.08 0.04 0.03 0.02 0.02 0.02 0.01 0.03 0.05 0.07 0.14 0.28 0.45 0.54 0.52 0.56 0.56 0.48 0.53 0.69 0.71 0.55 0.39 0.31 0.31 0.33 0.33 0.27 0.16 0.05 0.02
0.18 0.23 0.19 0.19 0.24 0.25 0.29 0.32 0.29 0.23 0.21 0.13 0.07 0.03 0.04 0.05 0.03 0.02 0.01 0.02 0.02 0.03 0.06 0.17 0.35 0.44 0.49 0.59 0.73 0.74 0.69 0.74 0.84 0.81 0.66 0.50 0.46 0.45 0.41 0.35 0.23 0.10 0.04
0.27 0.37 0.29 0.26 0.21 0.27 0.28 0.19 0.28 0.28 0.26 0.18 0.04 0.03 0.05 0.08 0.07 0.05 0.03 0.02 0.02 0.03 0.03 0.10 0.22 0.27 0.38 0.56 0.74 0.86 0.94 1.00 1.07 1.23 1.25 1.09 0.98 0.79 0.60 0.45 0.30 0.16 0.08
0.41 0.48 0.39 0.32 0.24 0.34 0.35 0.25 0.28 0.27 0.22 0.17 0.05 0.04 0.05 0.05 0.05 0.05 0.04 0.04 0.04 0.03 0.04 0.07 0.13 0.12 0.17 0.32 0.47 0.59 0.83 1.17 1.33 1.65 1.93 1.87 1.60 1.20 0.82 0.58 0.38 0.22 0.13
0.42 0.50 0.42 0.44 0.37 0.35 0.38 0.30 0.34 0.34 0.29 0.26 0.17 0.10 0.03 0.03 0.04 0.06 0.09 0.10 0.06 0.04 0.04 0.05 0.08 0.10 0.18 0.30 0.20 0.21 0.42 0.80 1.09 1.45 2.06 2.46 2.18 1.55 1.00 0.69 0.47 0.32 0.22
0.47 0.47 0.55 0.45 0.42 0.42 0.46 0.49 0.44 0.32 0.26 0.31 0.29 0.26 0.17 0.14 0.12 0.11 0.21 0.22 0.14 0.09 0.07 0.07 0.07 0.07 0.15 0.26 0.18 0.13 0.23 0.41 0.61 0.92 1.45 2.03 2.07 1.61 1.09 0.76 0.49 0.36 0.29
0.50 0.54 0.59 0.55 0.48 0.45 0.48 0.59 0.49 0.41 0.38 0.40 0.42 0.41 0.37 0.30 0.17 0.06 0.07 0.14 0.18 0.16 0.13 0.09 0.07 0.07 0.08 0.18 0.26 0.22 0.19 0.23 0.35 0.59 0.92 1.26 1.42 1.26 0.97 0.76 0.58 0.44 0.33
0.61 0.65 0.63 0.59 0.57 0.55 0.54 0.49 0.40 0.55 0.53 0.48 0.54 0.55 0.55 0.45 0.34 0.20 0.12 0.11 0.15 0.18 0.19 0.15 0.10 0.09 0.07 0.10 0.16 0.21 0.20 0.20 0.32 0.52 0.59 0.70 0.85 0.87 0.79 0.69 0.64 0.53 0.41
0.62 0.59 0.57 0.70 0.80 0.72 0.64 0.57 0.53 0.57 0.55 0.53 0.55 0.57 0.63 0.61 0.51 0.42 0.26 0.17 0.11 0.10 0.13 0.12 0.09 0.09 0.07 0.09 0.20 0.24 0.25 0.22 0.33 0.50 0.42 0.36 0.43 0.53 0.57 0.60 0.60 0.53 0.43
0.53 0.52 0.59 0.72 0.77 0.73 0.68 0.58 0.53 0.58 0.57 0.55 0.56 0.57 0.60 0.56 0.61 0.62 0.46 0.29 0.16 0.07 0.07 0.09 0.10 0.09 0.07 0.11 0.17 0.22 0.22 0.23 0.29 0.34 0.24 0.17 0.18 0.25 0.35 0.46 0.53 0.51 0.43
0.53 0.52 0.53 0.55 0.59 0.59 0.61 0.59 0.54 0.58 0.59 0.56 0.56 0.59 0.58 0.55 0.57 0.60 0.55 0.44 0.34 0.14 0.12 0.13 0.13 0.13 0.11 0.13 0.16 0.16 0.15 0.15 0.15 0.14 0.10 0.08 0.10 0.14 0.20 0.31 0.42 0.45 0.41
0.56 0.49 0.44 0.40 0.41 0.41 0.44 0.51 0.56 0.58 0.57 0.56 0.58 0.65 0.58 0.56 0.59 0.63 0.66 0.67 0.56 0.38 0.32 0.28 0.20 0.15 0.13 0.12 0.11 0.10 0.09 0.08 0.07 0.06 0.05 0.05 0.05 0.09 0.14 0.23 0.31 0.36 0.35
0.47 0.43 0.41 0.39 0.35 0.33 0.34 0.40 0.46 0.48 0.49 0.49 0.54 0.59 0.59 0.63 0.60 0.67 0.76 0.81 0.79 0.66 0.63 0.58 0.41 0.19 0.13 0.10 0.08 0.06 0.04 0.04 0.04 0.03 0.03 0.03 0.04 0.06 0.09 0.15 0.21 0.26 0.27
0.30 0.29 0.26 0.22 0.19 0.18 0.19 0.22 0.25 0.28 0.31 0.33 0.36 0.41 0.51 0.63 0.60 0.62 0.70 0.76 0.78 0.75 0.69 0.75 0.62 0.33 0.17 0.12 0.10 0.05 0.02 0.02 0.01 0.01 0.01 0.02 0.03 0.04 0.06 0.09 0.13 0.17 0.19
0.08 0.09 0.09 0.08 0.06 0.06 0.06 0.07 0.09 0.12 0.13 0.15 0.19 0.26 0.35 0.44 0.44 0.42 0.46 0.53 0.64 0.71 0.62 0.79 0.78 0.51 0.30 0.19 0.13 0.07 0.04 0.02 0.01 0.01 0.01 0.02 0.03 0.03 0.04 0.07 0.09 0.11 0.13
0.01 0.01 0.01 0.01 0.01 0.01 0.01 0.01 0.02 0.03 0.04 0.06 0.10 0.18 0.22 0.28 0.33 0.35 0.33 0.36 0.50 0.62 0.63 0.69 0.86 0.76 0.44 0.25 0.19 0.13 0.09 0.05 0.03 0.01 0.01 0.01 0.02 0.02 0.03 0.04 0.06 0.07 0.08
0.00 0.00 0.00 0.00 0.00 0.00 0.00 0.00 0.01 0.02 0.03 0.05 0.08 0.13 0.16 0.22 0.33 0.41 0.37 0.38 0.44 0.56 0.61 0.62 0.77 0.84 0.58 0.37 0.33 0.27 0.19 0.17 0.08 0.07 0.03 0.01 0.01 0.02 0.02 0.03 0.04 0.05 0.05
0.00 0.00 0.00 0.00 0.00 0.00 0.01 0.01 0.03 0.05 0.07 0.10 0.12 0.13 0.16 0.23 0.32 0.43 0.44 0.46 0.48 0.48 0.56 0.62 0.71 0.78 0.75 0.58 0.54 0.46 0.36 0.29 0.22 0.15 0.14 0.05 0.03 0.02 0.02 0.03 0.03 0.03 0.02
0.00 0.00 0.00 0.00 0.00 0.00 0.00 0.02 0.05 0.08 0.10 0.10 0.10 0.10 0.09 0.12 0.14 0.20 0.29 0.41 0.49 0.53 0.57 0.64 0.70 0.77 0.77 0.70 0.61 0.57 0.52 0.47 0.41 0.36 0.38 0.25 0.21 0.19 0.12 0.05 0.03 0.02 0.02
0.00 0.00 0.00 0.00 0.00 0.00 0.00 0.00 0.02 0.04 0.04 0.04 0.04 0.04 0.03 0.03 0.06 0.10 0.12 0.19 0.28 0.42 0.59 0.71 0.74 0.77 0.80 0.79 0.75 0.68 0.65 0.61 0.59 0.53 0.52 0.51 0.48 0.49 0.36 0.18 0.09 0.05 0.04
0.01 0.01 0.01 0.01 0.00 0.00 0.00 0.00 0.00 0.00 0.00 0.00 0.01 0.01 0.00 0.00 0.02 0.05 0.06 0.06 0.08 0.11 0.21 0.47 0.64 0.66 0.66 0.70 0.77 0.82 0.80 0.78 0.78 0.71 0.66 0.71 0.69 0.73 0.55 0.41 0.31 0.17 0.12
0.03 0.03 0.03 0.02 0.01 0.00 0.00 0.00 0.00 0.00 0.00 0.00 0.00 0.00 0.00 0.00 0.00 0.01 0.04 0.06 0.04 0.01 0.04 0.13 0.20 0.25 0.31 0.42 0.55 0.71 0.84 0.89 0.92 0.86 0.79 0.88 0.87 0.87 0.75 0.55 0.37 0.24 0.18
0.05 0.04 0.04 0.05 0.03 0.01 0.00 0.00 0.00 0.00 0.00 0.00 0.00 0.00 0.00 0.00 0.00 0.00 0.01 0.03 0.03 0.01 0.00 0.01 0.04 0.07 0.11 0.16 0.24 0.37 0.52 0.72 0.95 1.04 0.94 0.96 0.97 0.96 1.04 0.99 0.62 0.35 0.23
0.07 0.04 0.04 0.06 0.05 0.02 0.00 0.00 0.00 0.00 0.00 0.00 0.00 0.00 0.00 0.00 0.00 0.00 0.00 0.01 0.01 0.01 0.01 0.00 0.01 0.01 0.01 0.02 0.05 0.11 0.20 0.37 0.59 0.78 0.77 0.77 0.86 0.97 1.15 1.21 0.99 0.68 0.42